Weather History for CYYZ - October, 2012

Change the Weather History Date:

Sunday, October 28, 2012

  Actual Average Record
Temperature  
Mean Temperature 40 °F -  
Max Temperature 42 °F 46 °F 69 °F (2014)
Min Temperature 39 °F 31 °F 28 °F (2011)
Degree Days  
Heating Degree Days 24    
Moisture  
Dew Point 37 °F    
Average Humidity 85    
Maximum Humidity 88    
Minimum Humidity 78    
Precipitation  
Precipitation 0.20 in 0.09 in - ()
Sea Level Pressure  
Sea Level Pressure 30.10 in    
Wind  
Wind Speed 12 mph ()    
Max Wind Speed 17 mph    
Max Gust Speed 22 mph    
Visibility 13.0 miles    
Events Rain    
Averages and records for this station are not official NWS values.
T = Trace of Precipitation, MM = Missing Value Source: Averaged Metar Reports

Daily Weather History Graph

Daily Weather History Graph

Search for Another Location

Airport or City:

Trip Planner

Search our weather history database for the weather conditions in past years. The results will help you decide how hot, cold, wet, or windy it might be!

Date:

Astronomy

Oct. 28, 2012 Rise Set
Actual Time 7:49 AM EDT 6:14 PM EDT
Civil Twilight 7:20 AM EDT 6:43 PM EDT
Nautical Twilight 6:46 AM EDT 7:17 PM EDT
Astronomical Twilight 6:13 AM EDT 7:50 PM EDT
Moon 5:31 PM EDT (10/28) 6:40 AM EDT (10/28)
Length of Visible Light 11h 23m
Length of Day
10h 24m
Waxing Gibbous, 99% of the Moon is Illuminated
Oct 28
Waxing Gibbous
Oct 29
Full
Nov 6
Last Quarter
Nov 13
New
Nov 20
First Quarter

Hourly Weather History & Observations

Time (EDT) Temp. Windchill Dew Point Humidity Pressure Visibility Wind Dir Wind Speed Gust Speed Precip Events Conditions
12:00 AM 42.8 °F 36.2 °F 37.4 °F 81% 30.15 in 15.0 mi North 12.7 mph 18.4 mph N/A   Overcast
1:00 AM 42.8 °F 36.6 °F 37.4 °F 81% 30.15 in 15.0 mi North 11.5 mph 17.3 mph N/A   Overcast
2:00 AM 41 °F - 37 °F 81% 30.15 in 15 mi North 11.5 mph - -   Overcast
2:00 AM 41.0 °F 33.5 °F 37.4 °F 87% 30.15 in 15.0 mi North 13.8 mph - N/A   Overcast
3:00 AM 41.0 °F 34.3 °F 37.4 °F 87% 30.15 in 15.0 mi North 11.5 mph 17.3 mph N/A   Overcast
4:00 AM 41.0 °F 33.5 °F 37.4 °F 87% 30.14 in 15.0 mi North 13.8 mph - N/A   Overcast
5:00 AM 41.0 °F 33.9 °F 35.6 °F 81% 30.14 in 15.0 mi North 12.7 mph - N/A   Overcast
6:00 AM 41.0 °F 33.5 °F 35.6 °F 81% 30.14 in 15.0 mi North 13.8 mph 20.7 mph N/A   Mostly Cloudy
7:00 AM 41.0 °F 32.8 °F 35.6 °F 81% 30.14 in 15.0 mi North 16.1 mph 21.9 mph N/A   Mostly Cloudy
8:00 AM 40 °F - 35 °F 78% 30.14 in 15 mi North 15.0 mph - -   Overcast
8:00 AM 41.0 °F 32.5 °F 35.6 °F 81% 30.14 in 15.0 mi North 17.3 mph - N/A   Overcast
9:00 AM 41.0 °F 33.5 °F 35.6 °F 81% 30.14 in 15.0 mi North 13.8 mph - N/A   Overcast
10:00 AM 42.8 °F 37.0 °F 37.4 °F 81% 30.14 in 15.0 mi North 10.4 mph - N/A   Overcast
10:13 AM 42.8 °F 35.8 °F - N/A% - 15.0 mi North 13.8 mph 20.7 mph N/A Rain Light Rain
11:00 AM 41.0 °F 32.8 °F 37.4 °F 87% 30.13 in 12.0 mi North 16.1 mph - N/A Rain Light Rain
12:00 PM 41.0 °F 33.1 °F 37.4 °F 87% 30.12 in 12.0 mi North 15.0 mph - N/A Rain Light Rain
1:00 PM 41.0 °F 33.1 °F 37.4 °F 87% 30.10 in 12.0 mi North 15.0 mph - N/A Rain Light Rain
2:00 PM 40 °F - 38 °F 88% 30.09 in 12 mi NNW 15.0 mph - - Rain Light Rain
2:00 PM 41.0 °F 32.8 °F 37.4 °F 87% 30.09 in 12.0 mi North 16.1 mph - N/A Rain Light Rain
3:00 PM 41.0 °F 33.5 °F 37.4 °F 87% 30.07 in 12.0 mi North 13.8 mph 21.9 mph N/A Rain Light Rain
4:00 PM 41.0 °F 33.5 °F 37.4 °F 87% 30.07 in 12.0 mi North 13.8 mph - N/A Rain Light Rain
5:00 PM 41.0 °F 33.1 °F 37.4 °F 87% 30.06 in 10.0 mi North 15.0 mph - N/A Rain Light Rain
6:00 PM 41.0 °F 32.8 °F 37.4 °F 87% 30.04 in 12.0 mi North 16.1 mph 21.9 mph N/A Rain Light Rain
7:00 PM 41.0 °F 33.5 °F 37.4 °F 87% 30.06 in 10.0 mi NNE 13.8 mph - N/A Rain Light Rain
7:15 PM 41.0 °F 34.7 °F - N/A% - 10.0 mi North 10.4 mph - N/A Rain Light Rain
8:00 PM 41 °F - 38 °F 85% 30.03 in 12 mi North 15.0 mph - - Rain Light Rain
8:00 PM 41.0 °F 33.1 °F 37.4 °F 87% 30.03 in 12.0 mi North 15.0 mph 21.9 mph N/A Rain Light Rain
9:00 PM 41.0 °F 33.1 °F 37.4 °F 87% 30.03 in 10.0 mi North 15.0 mph - N/A Rain Light Rain
10:00 PM 41.0 °F 33.5 °F 37.4 °F 87% 30.02 in 10.0 mi North 13.8 mph - N/A Rain Light Rain
11:00 PM 41.0 °F 33.5 °F 37.4 °F 87% 29.99 in 10.0 mi North 13.8 mph 19.6 mph N/A Rain Light Rain